Location: Stara Lesna
(49.1528°N, 20.2911°E)
Time: 22:34:34
(UTC+01:00)

STARLINK-54 - Visible Passes

Search period start: 15 December 2019 00:00
Search period end: 25 December 2019 00:00
Orbit: 529 x 531 km, 53.0° (Epoch: 15 December)

Date Brightness Start Highest point End Pass type
(mag) Time Alt. Az. Time Alt. Az. Time Alt. Az.
15 Dec 6.3 18:56:42 10° SW 18:57:13 13° SW 18:57:13 13° SW visible
16 Dec 5.7 17:08:44 10° SSE 17:10:11 12° SE 17:10:51 11° ESE visible
16 Dec 5.7 18:44:40 10° SW 18:46:07 21° SW 18:46:07 21° SW visible
17 Dec 5.6 16:56:02 10° SSE 16:58:08 14° SE 16:59:41 12° ESE visible
17 Dec 5.1 18:32:39 10° SW 18:34:56 32° SW 18:34:56 32° SW visible
18 Dec 5.5 16:43:32 10° S 16:46:05 16° SE 16:48:27 11° E visible
18 Dec 4.3 18:20:40 10° SW 18:23:42 48° SW 18:23:42 48° SW visible
19 Dec 5.3 16:31:10 10° S 16:34:04 19° SE 16:36:58 10° E visible
19 Dec 3.6 18:08:42 10° WSW 18:12:24 72° SSW 18:12:24 72° SSW visible
20 Dec 5.2 16:18:54 10° S 16:22:02 22° SE 16:25:12 10° E visible
20 Dec 3.3 17:56:45 10° WSW 18:00:47 88° SSE 18:01:04 77° ENE visible
20 Dec 6.9 19:36:15 10° W 19:36:19 10° W 19:36:19 10° W visible
21 Dec 3.5 17:44:48 10° WSW 17:48:51 84° NNW 17:49:41 55° ENE visible
21 Dec 6.6 19:24:22 10° WNW 19:24:56 13° WNW 19:24:56 13° WNW visible
22 Dec 3.5 17:32:53 10° WSW 17:36:55 76° NNW 17:38:17 40° ENE visible
22 Dec 6.3 19:12:28 10° WNW 19:13:31 17° WNW 19:13:31 17° WNW visible
23 Dec 3.6 17:20:59 10° WSW 17:25:00 70° NNW 17:26:51 30° ENE visible
23 Dec 5.9 19:00:35 10° WNW 19:02:06 21° WNW 19:02:06 21° WNW visible
24 Dec 3.7 17:09:04 10° W 17:13:05 65° NNW 17:15:25 24° ENE visible
24 Dec 5.5 18:48:41 10° WNW 18:50:39 26° WNW 18:50:39 26° WNW visible
